User: anonymous   Login
Location: Hamilton
(37.7830°S, 175.2830°E)
Time: 01:13:30
(UTC+13:00)
Language:

MOS 1 - Orbit

View from above orbital plane
View from above orbital plane
View from above satellite
View from above satellite

Ground track
Ground track

The orbit data is extracted from the following two-line orbital elements,

1 17527U 87018A   19288.75697439  .00000093  00000-0  90169-4 0  9995
2 17527  99.1944 324.6440 0009532 108.6431   2.2125 14.02547490668687
Epoch (UTC): 15 October 2019 18:10:02
Eccentricity: 0.0009532
inclination: 99.1944°
perigee height: 878 km
apogee height: 892 km
right ascension of ascending node: 324.6440°
argument of perigee: 108.6431°
revolutions per day: 14.02547490
mean anomaly at epoch: 2.2125°
orbit number at epoch: 66868

The dashed part of the orbit path shows where the satellite is in the earth's shadow,  

DLR